Weather Roundup
Issued by NWS Chicago, IL

Home | Current Version | Previous Version | Graphics & Text | Print | Product List | Glossary On
Versions: 1 2 3 4 5 6 7 8 9 10 11 12 13 14 15 16 17 18 19 20 21 22 23 24 25 26 27 28 29 30 31 32 33 34 35 36 37 38 39 40 41 42 43 44 45 46 47 48 49 50
000
NZUS59 KLOT 170812
HRRLOT

CHICAGO AREA WEATHER ROUNDUP
NATIONAL WEATHER SERVICE CHICAGO/ROMEOVILLE IL
200 AM CST TUE JAN 17 2017

NOTE: "FAIR" INDICATES FEW OR NO CLOUDS BELOW 12,000 FEET WITH NO
SIGNIFICANT WEATHER AND/OR OBSTRUCTIONS TO VISIBILITY.

* THESE STATIONS ARE NOT UNDER NWS QUALITY CONTROL. THEY ALSO MAY NOT
  REPORT WEATHER SUCH AS PRECIPITATION OR FOG.

ILZ005-006-012>014-019>023-170900-
NORTHEAST ILLINOIS

CITY           SKY/WX    TMP DP  RH WIND       PRES   REMARKS
OHARE          TSTM      38  38 100 NE3       29.76S FOG
MIDWAY         TSTM      38  38 100 NW13      29.76R VSB 1
AURORA         CLOUDY    38  37  97 VRB3      29.75F
LANSING*       TSTM      48  48 100 S12G18    29.75R
JOLIET*        CLOUDY    42  42 100 CALM      29.76S
WAUKEGAN       LGT RAIN  38  37  97 NE6       29.78F VSB 1/2
DUPAGE AIRPORT LGT RAIN  38  36  92 CALM      29.75F FOG
WHEELING       TSTM      38  37  97 CALM      29.77F FOG
KANKAKEE*      CLOUDY    50  49  97 S16       29.76R
MORRIS*        CLOUDY    38  38  97 CALM      29.75S VSB 3/4
LEWIS AIRPORT* TSTM      40  40 100 NE5       29.76R
NORTHERLY ISL    N/A     36  35  96 W6          N/A
$$

WIZ051-052-058>065-066-070>072-170900-
SOUTHEAST WISCONSIN

CITY           SKY/WX    TMP DP  RH WIND       PRES   REMARKS
MILWAUKEE      DRZL/FOG  38  36  92 NE6       29.81F VSB 1/2
KENOSHA*       FOG       37  36  96 E8        29.80S VSB 1/4
RACINE*        FOG       37  36  96 E12       29.81F VSB 1/2
WAUKESHA       RAIN      32  32 100 NE8       29.81F VSB 1/2 WCI  25
WEST BEND      DRZL/FOG  34  34 100 NE8       29.82F VSB 3/4 WCI  27
$$

INZ001>003-010>013-019-020-170900-
NORTHWEST INDIANA

CITY           SKY/WX    TMP DP  RH WIND       PRES   REMARKS
GARY*          TSTM      50  50  99 SE9       29.74F
MICHIGAN CITY* NOT AVBL
RENSSELAER*    NOT AVBL
VALPARAISO     LGT RAIN  49  49 100 SE9       29.76F VSB 1
$$

LMZ740>746-170900-
SOUTHERN LAKE MICHIGAN

STATION/POSITION TIME  SKY/WX   TEMP WIND        PRES    VSBY
                                AIR  DIR/SP/G
                 (UTC)          (F)  (DEG/KT/KT) (MB)    (MI)
HARRISON CRIB    0740            42   90/ 13/ 13   N/A
BURNHAM HARBOR   0800            37  350/  4/  5   N/A
CALUMET HARBOR   0742            48  150/ 12/ 18 1006.6F
BURNS HARBOR     0740            49  150/  9/ 16 1008.1F
MICHIGAN CITY    NOT AVBL
$$

ABBREVIATIONS USED IN REMARKS
   TC - TEMPERATURE IN CELSIUS
  WCI - WIND CHILL INDEX
   HX - HEAT INDEX
  VSB - VISIBILITY
$$



USA.gov is the U.S. government's official web portal to all federal, state and local government web resources and services.